Regional Weather Roundup
Issued by NWS

Home | Current Version | Previous Version | Text Only | Print | Product List | Glossary Off
Versions: 1 2 3 4 5 6 7 8 9 10 11 12 13 14 15 16 17 18 19 20 21 22 23 24 25 26 27 28 29 30 31 32 33 34 35 36 37 38 39 40 41 42 43 44 45 46 47 48 49 50

000
ASUS43 KMPX 311210
RWRMN
WEATHER ROUNDUP FOR MINNESOTA
NATIONAL WEATHER SERVICE TWIN CITIES/CHANHASSEN MN
700 AM CDT TUE MAY 31 2016


NOTE: "FAIR" INDICATES FEW OR NO CLOUDS BELOW 12,000 FEET WITH NO
SIGNIFICANT WEATHER AND/OR OBSTRUCTIONS TO VISIBILITY. N/A MEANS
CURRENT SKY AND/OR WEATHER CONDITIONS ARE NOT AVAILABLE.

MNZ060>063-068>070-311300-
   Twin Cities Metro

CITY           SKY/WX    TMP DP  RH WIND       PRES   REMARKS
TWIN CITIES    CLOUDY    66  57  72 SE9       29.86F
6HR MIN TEMP:  66; 6HR MAX TEMP:  71;

ST PAUL        CLOUDY    66  57  72 SE8       29.87S
CRYSTAL        CLOUDY    67  56  67 SE9       29.84F
BLAINE         CLOUDY    66  57  72 SE7       29.86S
EDEN PRAIRIE   CLOUDY    66  58  75 SE10      29.85S
6HR MIN TEMP:  65; 6HR MAX TEMP:  71; 6HR PCP: TRACE;

SOUTH ST PAUL  CLOUDY    67  55  67 SE7       29.88R
LAKE ELMO      FAIR      64  57  77 S7        29.89R
$$
MNZ001>005-007-008-013>017-022>024-027-028-311300-
   Northwest Minnesota

CITY           SKY/WX    TMP DP  RH WIND       PRES   REMARKS
BEMIDJI        CLOUDY    52  51  95 SE14      29.82R
HALLOCK        RAIN      61  55  82 SE16      29.70S
ROSEAU         LGT RAIN  54  48  82 E16G23    29.80S
WARROAD        LGT RAIN  54  50  87 E20G26    29.82F
THIEF RVR FALL CLOUDY    59  54  82 E14G21    29.75S
CROOKSTON      CLOUDY    61  59  94 S12       29.73S
FOSSTON        DRIZZLE   57  55  94 SE14G22   29.75R
DETROIT LAKES  CLOUDY    61  59  94 SE9       29.77S
MOORHEAD       CLOUDY    61  57  88 S9        29.74F
PARK RAPIDS    CLOUDY    57  54  89 SE9       29.81R
MAHNOMEN       CLOUDY    60  58  94 S3        29.75S
$$
MNZ006-009>011-018-025>026-311300-
   North Central Minnesota

CITY           SKY/WX    TMP DP  RH WIND       PRES   REMARKS
BAUDETTE       LGT RAIN  53  50  89 E18G28    29.85F
FLAG ISLAND    RAIN      54  50  87 E8G16     29.87S
INTL FALLS     LGT RAIN  52  45  77 SE13G22   29.94R
6HR MIN TEMP:  52; 6HR MAX TEMP:  57; 6HR PCP: TRACE;

WASKISH        LGT RAIN  52  50  93 E16G23    29.85S
BIG FORK       RAIN      48  46  93 E7        29.92S
LONGVILLE      LGT RAIN  52  50  93 E7        29.85S
GRAND RAPIDS   CLOUDY    48  46  93 E10       29.90F
CRANE LAKE     CLOUDY    50  41  71 SE6       29.99S
ORR            RAIN      46  41  81 SE6       29.94S
COOK           RAIN      46  43  87 E5        29.96F
WALKER         LGT RAIN  53  51  95 E9G17     29.83S
$$
MNZ012-019>021-037-311300-
   Northeast Minnesota

CITY           SKY/WX    TMP DP  RH WIND       PRES   REMARKS
DULUTH         CLOUDY    47  41  80 E16G28    29.95F
6HR MIN TEMP:  47; 6HR MAX TEMP:  53; 6HR PCP: TRACE;

ELY            CLOUDY    48  37  66 E13G22    30.00F
HIBBING        LGT RAIN  46  43  89 E9        29.93F
EVELETH        LGT RAIN  46  39  76 E7G17     29.96F
DULUTH HARBOR  CLOUDY    45  43  93 NE23G31   29.99S
TWO HARBORS    PTSUNNY   50  43  76 NE20G26   29.98F
SILVER BAY     MOSUNNY   46  39  76 NE16G25   30.03F
GRAND MARAIS     N/A     44  40  85 E13       30.12R
G MARAIS ARPRT CLOUDY    43  37  81 E9G18     30.10R
$$
MNZ029>031-032-039>041-046>048-054>057-064-311300-
   West Central Minnesota

CITY           SKY/WX    TMP DP  RH WIND       PRES   REMARKS
FERGUS FALLS   CLOUDY    63  61  94 S10       29.74S
WHEATON        PTSUNNY   61  57  88 W9        29.79R
MORRIS         CLOUDY    63  61  94 S13       29.78R
ALEXANDRIA     CLOUDY    61  58  90 S10       29.81R
ELBOW LAKE     CLOUDY    61  59  94 S12       29.77F
WADENA         LGT RAIN  59  57  94 SE3       29.80R
GLENWOOD       DRIZZLE   61  59  94 S9        29.81S
APPLETON       CLOUDY    63  57  82 W14       29.81R
ORTONVILLE     CLOUDY    61  55  82 W6        29.81R
MADISON        PTSUNNY   61  57  88 SW7       29.83R
WILLMAR        CLOUDY    63  61  94 S5        29.82S
$$
MNZ033>034-036-042>043-049>051-058-059-311300-
   Central Minnesota

CITY           SKY/WX    TMP DP  RH WIND       PRES   REMARKS
ST CLOUD       LGT RAIN  62  60  93 E6        29.82F
6HR MIN TEMP:  62; 6HR MAX TEMP:  69; 6HR PCP:  0.16;

SAUK CENTRE    LGT RAIN  60  59  96 SE7       29.82R
PAYNESVILLE    CLOUDY    62  61  99 SE6       29.83R
AITKIN         MIX PCPN  54  46  76 E8        29.86F
PINE RIVER     DRIZZLE   54  54 100 E12G20    29.86F
BRAINERD       LGT RAIN  55  54  96 VRB7      29.84S
STAPLES        LGT RAIN  61  59  94 SE6       29.81R
LONG PRAIRIE   LGT RAIN  59  59 100 E12       29.82R
LITTLE FALLS   LGT RAIN  61  59  94 E7        29.82S
LITCHFIELD     LGT RAIN  63  63 100 SE8       29.82S
BUFFALO        CLOUDY    63  58  86 SE5       29.84S
MAPLE LAKE     CLOUDY    64  61  93 SE6       29.84S
HUTCHINSON     LGT RAIN  63  62  96 SE9       29.82F
$$
MNZ037-044-045-052-053-311300-
   East Central Minnesota

CITY           SKY/WX    TMP DP  RH WIND       PRES   REMARKS
PRINCETON        N/A     64  61  88 E5        29.84F
MORA           CLOUDY    54  50  87 E5        29.90R
CAMBRIDGE      CLOUDY    66  55  68 E5        29.84F
RUSH CITY      CLOUDY    60  54  80 NE7       29.88S
MOOSE LAKE     CLOUDY    45  43  93 NE8G17    29.91S
HINCKLEY       FAIR      50  48  93 NE9       29.90F
CLOQUET        CLOUDY    46  43  87 E13G22    29.95S
MCGREGOR       CLOUDY    46  46 100 E13G18    29.90S
$$
MNZ071>073-080-081-089-090-097-098-311300-
   Southwest Minnesota

CITY           SKY/WX    TMP DP  RH WIND       PRES   REMARKS
MONTEVIDEO     CLOUDY    63  63 100 NW10G18   29.83R
GRANITE FALLS  DRIZZLE   64  62  92 SW13      29.83R
CANBY          CLOUDY    63  60  88 W8        29.86R
MARSHALL       CLOUDY    62  59  90 W13       29.85R
REDWOOD FALLS  LGT RAIN  64  60  87 SW14      29.83R
OLIVIA         CLOUDY    70  66  88 SW9       29.82R
PIPESTONE      CLOUDY    59  55  88 NW7       29.88S
WINDOM         CLOUDY    63  61  94 S7        29.86R
WORTHINGTON    LGT RAIN  61  59  93 SW15      29.89R
JACKSON        DRIZZLE   61  59  94 S9        29.88R
TRACY          CLOUDY    63  60  90 SW18      29.86R
SLAYTON        CLOUDY    61  60  97 SW13      29.89R
$$
MNZ065>067-074>077-082>085-091>093-311300-
   South Central Minnesota

CITY           SKY/WX    TMP DP  RH WIND       PRES   REMARKS
MANKATO        CLOUDY    63  57  82 S12       29.87R
NEW ULM        CLOUDY    63  61  94 S15       29.83R
ST JAMES       RAIN      57  55  94 SE20G25   29.85S
FAIRMONT       CLOUDY    63  59  88 SE10      29.87R
GLENCOE        LGT RAIN  64  62  92 SE9       29.82F
FARIBAULT      CLOUDY    64  57  77 S8        29.90R
OWATONNA       CLOUDY    63  57  82 S12       29.91R
WASECA         RAIN      63  59  88 SE8       29.90R
ALBERT LEA     LGT RAIN  64  59  82 S9        29.91R
$$
MNZ078>079-086>088-094>096-311300-
   Southeast Minnesota

CITY           SKY/WX    TMP DP  RH WIND       PRES   REMARKS
ROCHESTER      CLOUDY    63  56  78 S13       29.93R
6HR MIN TEMP:  62; 6HR MAX TEMP:  66; 6HR PCP: TRACE;

RED WING       CLOUDY    66  54  63 SE7       29.88R
STANTON        CLOUDY    65  58  77 S5        29.89R
DODGE CENTER   CLOUDY    64  55  72 S14       29.91R
WINONA         CLOUDY    66  57  72 SE6       29.90F
AUSTIN         CLOUDY    63  55  77 S6        29.92R
PRESTON        CLOUDY    62  55  78 SE6       29.93R
$$
ABBREVIATIONS USED IN REMARKS
   TC - TEMPERATURES IN CELSIUS
  WCI - WIND CHILL INDEX
   HX - HEAT INDEX
  VSB - VISIBILITY
$$




USA.gov is the U.S. government's official web portal to all federal, state and local government web resources and services.